• In Belgien
  • Länderverzeichnis
  • Für 7 Tage
  • Wassertemperatur
  • Satellitenkarten
  • Wetterkarte
  • Widgets
  • user-avatar
    Anmelden

    Stündliche Wetter Sydney

    Heute, 24 August, Donnerstag

    Zeit Temperatur Niederschläge Wind Luftdruck Luftfeuchtigkeit
    00:00 +12°C° 0,1 mm 3 m/S 761 mmHg 74%
    01:00 +11°C° 0,1 mm 4 m/S 761 mmHg 72%
    02:00 +11°C° 0 mm 4 m/S 761 mmHg 72%
    03:00 +11°C° 0 mm 4 m/S 761 mmHg 72%
    04:00 +10°C° 0 mm 4 m/S 761 mmHg 75%
    05:00 +10°C° 0 mm 4 m/S 761 mmHg 75%
    06:00 +10°C° 0 mm 4 m/S 762 mmHg 74%
    07:00 +8°C° 0 mm 5 m/S 762 mmHg 74%
    08:00 +12°C° 0 mm 5 m/S 762 mmHg 64%
    09:00 +14°C° 0 mm 6 m/S 762 mmHg 55%
    10:00 +17°C° 0 mm 6 m/S 762 mmHg 46%
    11:00 +17°C° 0,1 mm 6 m/S 762 mmHg 44%
    12:00 +19°C° 0,1 mm 6 m/S 762 mmHg 43%
    13:00 +20°C° 0,1 mm 7 m/S 762 mmHg 41%
    14:00 +18°C° 0,1 mm 7 m/S 762 mmHg 46%
    15:00 +17°C° 0,1 mm 7 m/S 762 mmHg 52%
    16:00 +16°C° 0,1 mm 8 m/S 762 mmHg 57%
    17:00 +15°C° 0,1 mm 8 m/S 762 mmHg 61%
    18:00 +12°C° 0,1 mm 7 m/S 763 mmHg 65%
    19:00 +11°C° 0,1 mm 7 m/S 763 mmHg 69%
    20:00 +11°C° 0,2 mm 7 m/S 764 mmHg 70%
    21:00 +10°C° 0,2 mm 7 m/S 764 mmHg 71%
    22:00 +10°C° 0,2 mm 7 m/S 764 mmHg 72%
    23:00 +10°C° 0,2 mm 7 m/S 764 mmHg 73%

    Morgen, 25 August, Freitag

    Zeit Temperatur Niederschläge Wind Luftdruck Luftfeuchtigkeit
    00:00 +9°C° 0,2 mm 7 m/S 765 mmHg 74%
    01:00 +9°C° 0,2 mm 7 m/S 765 mmHg 75%
    02:00 +9°C° 0,3 mm 7 m/S 765 mmHg 73%
    03:00 +8°C° 0,3 mm 7 m/S 765 mmHg 72%
    04:00 +8°C° 0,3 mm 7 m/S 765 mmHg 70%
    05:00 +8°C° 0,2 mm 7 m/S 766 mmHg 69%
    06:00 +6°C° 0,2 mm 7 m/S 766 mmHg 68%
    07:00 +6°C° 0,2 mm 7 m/S 766 mmHg 67%
    08:00 +9°C° 0,1 mm 7 m/S 767 mmHg 62%
    09:00 +11°C° 0,1 mm 7 m/S 767 mmHg 57%
    10:00 +15°C° 0,1 mm 7 m/S 767 mmHg 52%
    11:00 +16°C° 0,1 mm 7 m/S 767 mmHg 49%
    12:00 +16°C° 0,1 mm 7 m/S 766 mmHg 46%
    13:00 +17°C° 0,1 mm 7 m/S 766 mmHg 42%
    14:00 +17°C° 0 mm 7 m/S 766 mmHg 44%
    15:00 +17°C° 0 mm 7 m/S 766 mmHg 45%
    16:00 +16°C° 0 mm 6 m/S 766 mmHg 46%
    17:00 +15°C° 0 mm 6 m/S 766 mmHg 56%
    18:00 +13°C° 0 mm 5 m/S 767 mmHg 66%
    19:00 +10°C° 0 mm 5 m/S 767 mmHg 76%
    20:00 +11°C° 0 mm 4 m/S 767 mmHg 79%
    21:00 +10°C° 0 mm 4 m/S 768 mmHg 81%
    22:00 +10°C° 0 mm 4 m/S 768 mmHg 84%
    23:00 +8°C° 0 mm 4 m/S 768 mmHg 84%

    übermorgen, 26 August, Samstag

    Zeit Temperatur Niederschläge Wind Luftdruck Luftfeuchtigkeit
    00:00 +8°C° 0 mm 4 m/S 768 mmHg 85%
    01:00 +7°C° 0 mm 4 m/S 768 mmHg 85%
    02:00 +7°C° 0 mm 4 m/S 767 mmHg 85%
    03:00 +7°C° 0 mm 4 m/S 767 mmHg 85%
    04:00 +6°C° 0 mm 4 m/S 767 mmHg 85%
    05:00 +6°C° 0 mm 4 m/S 767 mmHg 83%
    06:00 +7°C° 0 mm 3 m/S 768 mmHg 82%
    07:00 +7°C° 0 mm 3 m/S 768 mmHg 81%
    08:00 +11°C° 0 mm 3 m/S 768 mmHg 68%
    09:00 +15°C° 0 mm 2 m/S 768 mmHg 56%
    10:00 +18°C° 0 mm 2 m/S 767 mmHg 44%
    11:00 +20°C° 0 mm 2 m/S 767 mmHg 38%
    12:00 +22°C° 0 mm 1 m/S 766 mmHg 33%
    13:00 +24°C° 0 mm 1 m/S 765 mmHg 28%
    14:00 +23°C° 0 mm 2 m/S 765 mmHg 29%
    15:00 +23°C° 0 mm 2 m/S 765 mmHg 29%
    16:00 +21°C° 0 mm 3 m/S 764 mmHg 30%
    17:00 +19°C° 0 mm 3 m/S 765 mmHg 41%
    18:00 +16°C° 0 mm 2 m/S 765 mmHg 52%
    19:00 +14°C° 0 mm 2 m/S 765 mmHg 63%
    20:00 +13°C° 0 mm 2 m/S 766 mmHg 66%
    21:00 +12°C° 0 mm 2 m/S 766 mmHg 69%
    22:00 +10°C° 0 mm 2 m/S 766 mmHg 72%
    23:00 +10°C° 0 mm 3 m/S 766 mmHg 72%

    27 August, Sonntag

    Zeit Temperatur Niederschläge Wind Luftdruck Luftfeuchtigkeit
    00:00 +8°C° 0 mm 4 m/S 766 mmHg 72%
    01:00 +8°C° 0 mm 4 m/S 765 mmHg 72%
    02:00 +7°C° 0 mm 4 m/S 765 mmHg 73%
    03:00 +7°C° 0 mm 4 m/S 765 mmHg 75%
    04:00 +6°C° 0 mm 4 m/S 765 mmHg 76%
    05:00 +6°C° 0 mm 4 m/S 765 mmHg 75%
    06:00 +6°C° 0 mm 4 m/S 765 mmHg 74%
    07:00 +6°C° 0 mm 4 m/S 766 mmHg 73%
    08:00 +10°C° 0 mm 4 m/S 766 mmHg 66%
    09:00 +13°C° 0 mm 4 m/S 766 mmHg 58%
    10:00 +17°C° 0 mm 4 m/S 766 mmHg 50%
    11:00 +17°C° 0,1 mm 5 m/S 765 mmHg 46%
    12:00 +19°C° 0,1 mm 6 m/S 765 mmHg 42%
    13:00 +20°C° 0,1 mm 7 m/S 765 mmHg 38%
    14:00 +18°C° 0,1 mm 7 m/S 765 mmHg 42%
    15:00 +17°C° 0,1 mm 8 m/S 765 mmHg 47%
    16:00 +16°C° 0,1 mm 8 m/S 765 mmHg 52%
    17:00 +15°C° 0 mm 8 m/S 766 mmHg 56%
    18:00 +12°C° 0 mm 8 m/S 766 mmHg 60%
    19:00 +11°C° 0 mm 7 m/S 767 mmHg 64%
    20:00 +11°C° 0 mm 7 m/S 767 mmHg 65%
    21:00 +11°C° 0 mm 6 m/S 768 mmHg 66%
    22:00 +11°C° 0 mm 6 m/S 768 mmHg 66%
    23:00 +10°C° 0,2 mm 6 m/S 768 mmHg 68%

    28 August, Montag

    Zeit Temperatur Niederschläge Wind Luftdruck Luftfeuchtigkeit
    00:00 +10°C° 0,2 mm 6 m/S 768 mmHg 70%
    01:00 +10°C° 0,2 mm 5 m/S 768 mmHg 72%
    02:00 +9°C° 0,1 mm 5 m/S 768 mmHg 72%
    03:00 +8°C° 0,1 mm 5 m/S 768 mmHg 73%
    04:00 +8°C° 0,1 mm 5 m/S 767 mmHg 73%
    05:00 +8°C° 0,1 mm 5 m/S 768 mmHg 72%
    06:00 +7°C° 0,1 mm 5 m/S 768 mmHg 70%
    07:00 +7°C° 0,1 mm 5 m/S 769 mmHg 69%
    08:00 +9°C° 0 mm 5 m/S 769 mmHg 62%
    09:00 +13°C° 0 mm 4 m/S 769 mmHg 55%
    10:00 +15°C° 0 mm 4 m/S 769 mmHg 48%
    11:00 +17°C° 0 mm 4 m/S 768 mmHg 45%
    12:00 +18°C° 0 mm 4 m/S 768 mmHg 42%
    13:00 +19°C° 0 mm 3 m/S 767 mmHg 39%
    14:00 +18°C° 0 mm 3 m/S 767 mmHg 42%
    15:00 +17°C° 0 mm 3 m/S 767 mmHg 44%
    16:00 +15°C° 0 mm 4 m/S 767 mmHg 47%
    17:00 +14°C° 0 mm 3 m/S 767 mmHg 53%
    18:00 +13°C° 0 mm 3 m/S 768 mmHg 59%
    19:00 +12°C° 0 mm 3 m/S 768 mmHg 65%
    20:00 +12°C° 0 mm 3 m/S 768 mmHg 67%
    21:00 +13°C° 0 mm 2 m/S 769 mmHg 68%
    22:00 +13°C° 0 mm 2 m/S 769 mmHg 70%
    23:00 +12°C° 0 mm 1 m/S 769 mmHg 73%

    29 August, Dienstag

    Zeit Temperatur Niederschläge Wind Luftdruck Luftfeuchtigkeit
    00:00 +11°C° 0 mm 1 m/S 768 mmHg 77%
    01:00 +11°C° 0 mm 1 m/S 768 mmHg 80%
    02:00 +10°C° 0,1 mm 1 m/S 768 mmHg 83%
    03:00 +10°C° 0,1 mm 1 m/S 768 mmHg 86%
    04:00 +9°C° 0,1 mm 1 m/S 768 mmHg 89%
    05:00 +9°C° 0 mm 1 m/S 768 mmHg 88%
    06:00 +9°C° 0 mm 1 m/S 768 mmHg 88%
    07:00 +9°C° 0 mm 1 m/S 769 mmHg 88%
    08:00 +12°C° 0 mm 1 m/S 768 mmHg 76%
    09:00 +15°C° 0 mm 1 m/S 768 mmHg 65%
    10:00 +19°C° 0 mm 1 m/S 768 mmHg 53%
    11:00 +19°C° 0 mm 1 m/S 767 mmHg 51%
    12:00 +19°C° 0 mm 2 m/S 767 mmHg 49%
    13:00 +20°C° 0 mm 3 m/S 766 mmHg 46%
    14:00 +19°C° 0,1 mm 3 m/S 766 mmHg 50%
    15:00 +19°C° 0,1 mm 4 m/S 766 mmHg 54%
    16:00 +18°C° 0,1 mm 4 m/S 766 mmHg 57%
    17:00 +17°C° 0,2 mm 4 m/S 766 mmHg 67%
    18:00 +14°C° 0,2 mm 4 m/S 766 mmHg 77%
    19:00 +13°C° 0,2 mm 4 m/S 767 mmHg 87%
    20:00 +12°C° 0,3 mm 3 m/S 767 mmHg 89%
    21:00 +12°C° 0,3 mm 3 m/S 767 mmHg 90%
    22:00 +11°C° 0,3 mm 3 m/S 767 mmHg 92%
    23:00 +10°C° 0,1 mm 3 m/S 767 mmHg 91%
    Mehr zeigen